Location: Bessat
(45.8735°N, 1.9924°E)
Time: 07:03:41
(UTC+00:00)

Cosmos 1943 Rocket - Pass Details

Date: 11 May 2021
Orbit: 814 x 842 km, 71.0° (Epoch: 20 June)

Event Time Altitude Azimuth Distance (km) Brightness Sun altitude
Exits shadow 22:13:54 45° 121° (ESE) 1,120 2.4 -22.5°
Maximum altitude 22:14:18 46° 108° (ESE) 1,108 2.5 -22.5°
Drops below altitude 10° 22:19:37 10° 37° (NE) 2,445 5.0 -22.9°
Sets 22:22:08 0° 32° (NNE) 3,378 5.8 -23.1°
